DELTA 1 DEB, 10825

Orbit data source: Space-Track

DELTA 1 DEB, 10825 is space debris in SSO originally from a launch on Thu, 29 Jul 1976 UTC launched from the Air Force Western Test Range (AFWTR). Debris objects in space refer to the collection of defunct objects orbiting the Earth. Examples of debris include non-operational satellites, rocket bodies, and fragments generated from explosions, collisions, or faulty payload assembly.

Loading next visibility...
Identifier
10825, 1976-077BV
Orbit
SSO
Country
Flag of USUS
Related business
Manufacturer
Unknown
Mission
Spacecraft
Bus & Motor
Unknown
Mass
Unknown
Launch date (UTC)
1976-07-29 (50 years ago)
Launch vehicle
Unknown
Launch site
Air Force Western Test Range (AFWTR)
Object type
Payload
Rocket body
Debris
Shape & HBR
Unknown shape, 0.4 m
Radar Cross Section
Medium (>0.1 m² and <1 m²)

Expand to show TLE details & history
Last TLE update: 12 hours ago

TLE from 12 hours ago
0 DELTA 1 DEB
1 10825U 76077BV  26171.17590486 -.00000005  00000-0  32430-3 0  9991
2 10825 102.2810 131.6726 0043748 196.7053 236.7432 12.34773187247660
Epoch: 2026-06-20T04:13Z
TLE epoch observation values (Epoch: 2026-06-20T04:13:18.179Z)
Latitude
69.23577°
Longitude
125.10754°
Altitude
1,559.71 km
Speed
7.085 km/s
True Right ascension
06h 27m 18s
True Declination
69° 07' 59"
Sunlit
Object was in daylight at epoch
Visualization orbit readout
Latitude
Unknown
Longitude
Unknown
Altitude
Unknown
Speed
Unknown
Apparent Right ascension
Unknown
Apparent Declination
Unknown
Sunlit
N/A
Visualization observer readout
Local Sidereal Time
03:13:29
Azimuth
Unknown
Elevation
Unknown
Doppler factor
Unknown
Orbital elements
Apogee altitude
1,561.018 km
Perigee altitude
1,491.856 km
Semi-major axis
7,904.574 km
Eccentricity
0.00437
Inclination
102.281°
RAAN
131.6726°
Arg. of periapsis
196.7053°
True anomaly
236.32525°
Mean anomaly
236.7432°
Eccentric anomaly
236.5341°
Mean motion
3.08834 °/min
Orbital period
116.57 mins
BSTAR
0.0003243
Loading maneuver chart data...
Computing Atmospheric mass density...
Loading historical data...
Loading historical data...
Loading historical data...
Loading historical data...
Loading historical data...
Loading historical data...
Loading historical data...

Documentation

Showing up to 5 results
|